Regional Weather Roundup
Issued by NWS

Home | Current Version | Previous Version | Text Only | Print | Product List | Glossary Off
Versions: 1 2 3 4 5 6 7 8 9 10 11 12 13 14 15 16 17 18 19 20 21 22 23 24 25 26 27 28 29 30 31 32 33 34 35 36 37 38 39 40 41 42 43 44 45 46 47 48 49 50

000
ASUS43 KDTX 261901
RWRMI
MICHIGAN HOURLY REGIONAL WEATHER ROUNDUP
NATIONAL WEATHER SERVICE DETROIT/PONTIAC MI
300 PM EDT MON JUN 26 2017

NOTE: "FAIR" INDICATES FEW OR NO CLOUDS BELOW 12,000 FEET WITH NO
SIGNIFICANT WEATHER AND/OR OBSTRUCTION TO VISIBILITY.

MIZ047>049-052>055-059>063-066>070-074>076-081>083-262000-
SOUTHEAST LOWER MICHIGAN

CITY           SKY/WX    TMP DP  RH WIND       PRES   REMARKS
ADRIAN         PTSUNNY   71  40  32 W16G22    30.04F
ALMA           PTSUNNY   67  44  42 W16G23    29.99S
ANN ARBOR      CLOUDY    67  45  45 W18       30.02S
BAD AXE        MOSUNNY   66  49  53 W12G20    29.95F
CARO           LGT RAIN  59  47  64 NW10G20   29.97R
DETROIT CITY   MOSUNNY   70  41  34 W13G24    29.99F
DETROIT        PTSUNNY   70  41  34 W23G33    30.01S
FLINT          PTSUNNY   68  42  38 W20G28    29.99S
GROSSE ILE     CLOUDY    69  42  37 NW15G24   30.00F
HILLSDALE      MOSUNNY   68  41  37 W14G26    30.03F
HOWELL         PTSUNNY   66  37  34 W16G25    30.01S

CITY           SKY/WX    TMP DP  RH WIND       PRES   REMARKS
JACKSON        PTSUNNY   68  41  37 W17G28    30.02F
LAMBERTVILLE   MOSUNNY   70  43  36 NW8G16    30.02F
LANSING        MOSUNNY   70  39  32 W26G35    30.02S
LAPEER         FAIR      65  49  56 SW8G17    29.98F
MASON          CLOUDY    68  45  42 W15G23    30.02F
MONROE         MOSUNNY   72  45  37 W12       30.01F
MT. CLEMENS    PTSUNNY   71  45  39 W16G24    29.96F
PONTIAC        MOSUNNY   68  41  37 W21G30    29.98F
PORT HOPE        N/A     66  47  50 W13G21    29.93F
PORT HURON     PTSUNNY   68  45  42 SW7       29.97F
TRI CITIES     MOSUNNY   68  47  46 W18G30    29.97F
MIDLAND        PTSUNNY   69  44  39 W12G29    29.96S
TROY           MOSUNNY   72  35  25 SW20G26   30.01S
SAGINAW HB     CLOUDY    66  43  42 W17G26    29.96F
$$
MIZ043>046-050>051-056>058-064>065-071>073-077>080-262000-
SOUTHWEST LOWER MICHIGAN

CITY           SKY/WX    TMP DP  RH WIND       PRES   REMARKS
BATTLE CREEK   PTSUNNY   68  48  48 W15G26    30.04F
BENTON HARBOR  MOSUNNY   68  47  46 W9        30.06F
BIG RAPIDS     PTSUNNY   61  42  50 W17G26    30.00S
COLDWATER      PTSUNNY   67  39  36 W16G23    30.04F
FREMONT        CLOUDY    61  43  51 W16G25    30.03S
HOLLAND        MOSUNNY   68  49  50 W12G22    30.05F
GRAND RAPIDS   PTSUNNY   64  44  48 W20G29    30.03S
IONIA          PTSUNNY   65  40  39 W16G25    30.02S
KALAMAZOO      PTSUNNY   69  38  32 W20G26    30.05F
LUDINGTON      CLOUDY    59  47  65 W9G20     30.02S
MARSHALL       PTSUNNY   61  52  74 W5        30.04S
MOUNT PLEASANT MOSUNNY   66  44  46 W13G21    29.97S
MUSKEGON       PTSUNNY   66  48  52 W15       30.04F
SOUTH HAVEN    MOSUNNY   66  47  49 W8G18     30.05F
$$
MIZ016>042-262000-
NORTHERN LOWER MICHIGAN

CITY           SKY/WX    TMP DP  RH WIND       PRES   REMARKS
ALPENA         LGT RAIN  60  57  89 SW3       29.92S
BEAVER ISLAND  CLOUDY    57  53  86 W9        29.95S
BELLAIRE       RAIN      55  50  82 W7        29.97S
CADILLAC       CLOUDY    56  46  68 W10       29.99S
CHARLEVOIX     CLOUDY    58  53  83 W14       29.98S
FRANKFORT      CLOUDY    58  47  66 W9G16     30.00S
GAYLORD        CLOUDY    56  47  71 W14G24    29.95R
GRAYLING       CLOUDY    59  45  60 W13G18    29.97R
HARBOR SPRINGS DRIZZLE   55  55  99 W8        29.94S
HOUGHTON LAKE  CLOUDY    58  45  62 W16G26    29.98R
MANISTEE       CLOUDY    59  47  64 W17       30.01S
OSCODA         MOSUNNY   69  45  41 W13G21    29.92S
PELLSTON       CLOUDY    57  53  86 W7        29.93S
ROGERS CITY    LGT RAIN  56  54  92 SW5       29.92S
TRAVERSE CITY  CLOUDY    60  47  61 W13       29.96S
$$
MIZ007>008-015-262000-
EASTERN UPPER MICHIGAN

CITY           SKY/WX    TMP DP  RH WIND       PRES   REMARKS
KINROSS        LGT RAIN  55  53  93 NW6       29.93S
MACKINAC ISLAN DRIZZLE   54  54 100 W3        29.93R
NEWBERRY       RAIN      53  52  97 N6        29.95S
S. S. MARIE    LGT RAIN  58  53  84 NW7       29.92S
MUNISING         N/A     49  48  97 NW9       30.00S
$$
MIZ004>006-011>014-085-262000-
CENTRAL UPPER MICHIGAN

CITY           SKY/WX    TMP DP  RH WIND       PRES   REMARKS
MANISTIQUE     CLOUDY    56  53  89 NW14      29.96S
ESCANABA       CLOUDY    58  51  78 N10       29.99R
MENOMINEE      LGT RAIN  58  51  78 N7        30.00F
SAWYER-GWINN   CLOUDY    52  48  87 N12G17    30.02S
$$
MIZ001>003-009>011-084-262000-
WESTERN UPPER MICHIGAN

CITY           SKY/WX    TMP DP  RH WIND       PRES   REMARKS
IRON MOUNTAIN  CLOUDY    57  51  80 N10       30.01S
HOUGHTON       MOSUNNY   59  48  67 W16       30.03F
COPPER HARBOR    N/A     59  52  77 N13       30.01F
IRONWOOD       MOSUNNY   61  46  57 NW9       30.08F
$$

ABBREVIATIONS USED IN REMARKS
   TC - TEMPERATURE IN CELSIUS
  WCI - WIND CHILL INDEX
   HX - HEAT INDEX
  VSB - VISIBILITY





USA.gov is the U.S. government's official web portal to all federal, state and local government web resources and services.